Time[GMT],air_temperature[C](-3m),wind_speed[m/s](-4m),wind_gust[m/s](-4m),visibility[m](-3m),barometric_pressure[millibars](-3m),wind_2_direction[degrees_true](-4m),wind_2_gust[m/s](-4m),wind_2_gust_1s[m/s](-4m),wind_2_min[m/s](-4m),wind_2_percent_good[1](-4m),wind_2_speed[m/s](-4m),wind_direction[degrees_true](-4m),wind_gust_1s[m/s](-4m),wind_min[m/s](-4m)
2008-10-01 15:00,15.4,5.4,6.4,2662,1005.63,,,,,1.00,,134.10,7.25,3.72
2008-10-01 16:00,15.5,5.2,6.2,2519,1004.77,,,,,1.00,,126.30,7.06,3.33
2008-10-01 17:00,15.6,5.7,6.6,2499,1003.97,,,,,1.00,,123.80,7.45,3.72
2008-10-01 18:00,15.5,6.2,7.1,2671,1002.93,,,,,1.00,,114.40,8.23,4.51
2008-10-01 20:00,16.5,5.9,7.1,2723,1002.44,,,,,1.00,,155.20,7.64,4.51
2008-10-01 21:00,16.4,3.4,4.1,2691,1002.20,,,,,1.00,,158.10,5.10,2.35
2008-10-01 22:00,16.4,5.1,5.9,2722,1001.83,,,,,1.00,,172.20,6.66,3.72
2008-10-01 23:00,16.3,4.7,5.6,2703,1001.95,,,,,1.00,,173.10,6.27,3.14
2008-10-02 00:00,16.2,4.0,4.5,2722,1001.95,,,,,1.00,,185.20,5.10,2.94
2008-10-02 01:00,16.2,3.5,4.2,2760,1001.89,,,,,1.00,,172.00,4.70,2.55
2008-10-02 02:00,15.9,3.1,3.8,2553,1001.22,,,,,1.00,,192.00,4.31,1.96
2008-10-02 03:00,15.7,3.4,4.1,2369,1001.04,,,,,1.00,,181.30,4.51,2.55
2008-10-02 04:00,15.7,2.2,3.4,2200,1000.73,,,,,1.00,,206.00,3.33,1.37
2008-10-02 05:00,15.6,2.7,3.3,2066,1000.18,,,,,1.00,,198.50,3.53,1.76
2008-10-02 06:00,15.5,2.5,3.0,1927,999.14,,,,,1.00,,170.60,3.33,1.76
2008-10-02 07:00,15.5,3.2,4.0,1802,998.10,,,,,1.00,,186.60,4.51,2.35
2008-10-02 08:00,15.4,1.6,2.1,1648,997.00,,,,,1.00,,196.50,2.16,1.18
2008-10-02 09:00,15.4,3.4,4.5,1819,997.13,,,,,1.00,,205.30,4.51,2.35
2008-10-02 10:00,15.1,3.9,4.9,2405,996.33,,,,,1.00,,279.30,5.68,2.55
2008-10-02 11:00,15.1,5.1,6.3,2897,996.58,,,,,1.00,,261.70,6.66,3.72
2008-10-02 12:00,14.4,6.8,8.4,2841,996.03,,,,,1.00,,233.70,9.41,4.90
2008-10-02 13:00,14.8,9.0,10.8,2787,996.70,,,,,1.00,,244.00,11.96,5.68
2008-10-02 14:00,14.4,9.2,11.3,2886,996.76,,,,,1.00,,265.30,12.54,6.08
2008-10-02 15:00,14.6,8.6,10.4,2933,997.00,,,,,1.00,,262.10,11.17,5.88
2008-10-02 16:00,15.4,9.6,11.6,2905,997.49,,,,,1.00,,256.30,12.94,6.66
2008-10-02 19:00,15.6,7.9,9.2,2945,998.84,,,,,1.00,,260.90,10.78,5.68
2008-10-02 21:00,15.8,7.4,8.7,2918,1001.22,,,,,1.00,,264.00,9.41,5.29
2008-10-02 22:00,15.5,9.1,11.2,2938,1002.44,,,,,1.00,,251.10,11.76,6.27
2008-10-02 23:00,15.0,8.8,10.6,2956,1003.79,,,,,1.00,,257.80,11.96,5.49
2008-10-03 00:00,14.0,9.0,10.5,2954,1004.89,,,,,1.00,,259.80,11.76,6.66
2008-10-03 01:00,13.6,10.1,12.1,2957,1006.12,,,,,1.00,,248.80,12.94,6.66
2008-10-03 02:00,13.1,9.5,11.4,2947,1006.85,,,,,1.00,,255.10,12.15,6.86
2008-10-03 03:00,12.6,8.6,11.1,2952,1007.52,,,,,1.00,,251.50,11.76,5.88
2008-10-03 04:00,12.4,7.4,8.9,2948,1007.95,,,,,1.00,,255.30,9.60,4.90
2008-10-03 06:00,,7323.0,742.3,,,,,,,,,6.30,742.30,7355.00
2008-10-03 07:00,12.0,6.3,7.6,2956,1008.20,,,,,1.00,,210.60,8.43,4.12
2008-10-03 08:00,12.5,8.6,10.4,2953,1008.26,,,,,1.00,,215.90,11.17,6.08
2008-10-03 09:00,12.2,8.0,9.2,2951,1008.69,,,,,1.00,,225.30,10.00,5.29
2008-10-03 10:00,12.2,8.0,9.5,2955,1008.87,,,,,1.00,,220.50,9.80,5.49
2008-10-03 11:00,12.3,8.9,10.4,2939,1008.63,,,,,1.00,,215.00,11.37,5.68
2008-10-03 12:00,12.6,9.8,12.0,2909,1009.18,,,,,1.00,,217.70,12.94,6.08
2008-10-03 13:00,12.6,9.9,11.8,2898,1009.79,,,,,1.00,,222.10,13.52,6.27
2008-10-03 14:00,13.4,9.0,10.7,2841,1009.61,,,,,1.00,,212.00,11.76,6.08
2008-10-03 15:00,14.4,9.1,10.7,2910,1009.24,,,,,1.00,,219.40,11.56,6.08
2008-10-03 16:00,15.2,9.4,11.8,2930,1008.93,,,,,1.00,,231.00,12.74,6.86
2008-10-03 18:00,15.2,7.3,8.5,2928,1008.69,,,,,1.00,,249.10,9.41,5.29
2008-10-03 19:00,13.3,8.1,9.8,2923,1009.73,,,,,1.00,,288.10,10.39,5.68
2008-10-03 20:00,13.7,7.8,9.0,2937,1010.53,,,,,1.00,,263.20,10.00,5.88
2008-10-03 22:00,13.7,7.9,10.1,2929,1011.94,,,,,1.00,,258.40,11.17,5.68
2008-10-03 23:00,13.5,8.6,10.1,2944,1012.92,,,,,1.00,,252.50,10.98,6.66
2008-10-04 00:00,13.4,8.1,9.7,2950,1013.96,,,,,1.00,,246.70,10.58,5.88
2008-10-04 01:00,13.0,9.2,10.8,2953,1015.00,,,,,1.00,,260.70,11.96,6.27
2008-10-04 02:00,12.7,8.4,10.2,2951,1015.86,,,,,1.00,,256.00,11.17,5.68
2008-10-04 03:00,12.2,9.2,10.7,2956,1016.60,,,,,1.00,,253.20,11.56,6.27
2008-10-04 04:00,11.9,8.2,9.9,2951,1016.91,,,,,1.00,,253.20,11.17,5.68
2008-10-04 05:00,11.7,8.4,9.9,2947,1016.97,,,,,1.00,,262.90,10.78,5.68
2008-10-04 06:00,11.8,7.9,9.7,2953,1017.28,,,,,1.00,,260.60,10.78,5.68
2008-10-04 07:00,11.2,6.5,7.4,2949,1017.28,,,,,1.00,,257.20,8.04,4.70
2008-10-04 08:00,11.0,8.0,9.3,2948,1017.52,,,,,1.00,,248.20,10.39,5.29
2008-10-04 09:00,11.2,8.4,9.8,2953,1018.01,,,,,1.00,,251.00,10.98,5.88
2008-10-04 10:00,10.7,8.2,9.7,2955,1018.08,,,,,1.00,,260.70,10.78,5.88
2008-10-04 11:00,10.4,7.9,8.9,2925,1018.87,,,,,1.00,,256.00,9.60,5.68
2008-10-04 12:00,9.9,8.3,9.8,2936,1019.67,,,,,1.00,,259.30,10.39,6.08
2008-10-04 14:00,,,,,,,,,,,,,,
2008-10-04 15:00,11.9,7.4,8.6,2924,1020.16,,,,,1.00,,266.70,9.41,5.68
2008-10-04 16:00,12.6,7.0,8.0,2925,1019.98,,,,,1.00,,268.80,9.21,4.90
2008-10-04 17:00,13.4,6.5,7.8,2924,1019.67,,,,,1.00,,271.60,8.82,4.12
2008-10-04 18:00,13.8,6.0,7.4,2865,1019.24,,,,,1.00,,272.20,8.23,4.31
2008-10-04 19:00,14.1,5.4,6.3,2927,1019.18,,,,,1.00,,259.10,7.06,4.12
2008-10-04 20:00,14.6,5.7,7.6,2953,1019.37,,,,,1.00,,265.70,7.64,3.53
2008-10-04 21:00,14.5,6.3,7.7,2942,1019.80,,,,,1.00,,284.00,8.23,4.70
2008-10-04 22:00,14.3,6.3,7.9,2957,1020.66,,,,,1.00,,286.40,8.43,4.51
2008-10-04 23:00,13.4,3.4,4.3,2957,1021.33,,,,,1.00,,276.90,4.70,1.96
2008-10-05 00:00,13.1,2.6,3.2,2958,1022.01,,,,,1.00,,254.40,3.33,2.16
2008-10-05 01:00,13.2,5.0,5.9,2956,1022.56,,,,,1.00,,256.90,6.27,3.92
2008-10-05 02:00,12.8,4.3,5.0,2958,1022.99,,,,,1.00,,265.30,5.29,2.94
2008-10-05 03:00,12.6,5.1,6.0,2955,1023.18,,,,,1.00,,270.60,6.66,3.53
2008-10-05 04:00,12.0,5.1,6.3,2956,1023.49,,,,,1.00,,275.30,7.06,3.14
2008-10-05 05:00,11.7,5.4,6.4,2956,1023.73,,,,,1.00,,271.90,6.86,3.72
2008-10-05 06:00,11.4,5.9,6.9,2955,1024.16,,,,,1.00,,272.30,7.45,4.12
2008-10-05 07:00,11.0,5.3,6.3,2956,1023.98,,,,,1.00,,276.70,7.25,3.92
2008-10-05 08:00,10.8,4.4,5.1,2952,1024.10,,,,,1.00,,283.80,5.68,3.33
2008-10-05 09:00,10.6,3.9,4.7,2954,1024.35,,,,,1.00,,285.70,4.90,2.94
2008-10-05 10:00,10.6,3.4,4.2,2953,1024.66,,,,,1.00,,278.50,4.31,2.74
2008-10-05 11:00,10.6,1.8,2.5,2945,1024.78,,,,,1.00,,308.10,2.74,1.18
2008-10-05 12:00,10.5,2.7,3.1,2949,1025.95,,,,,1.00,,287.00,3.33,1.96
2008-10-05 13:00,10.5,0.9,1.9,2941,1025.83,,,,,1.00,,292.30,1.96,0.39
2008-10-05 14:00,11.0,1.0,1.6,2927,1026.38,,,,,1.00,,306.20,1.57,0.39
2008-10-05 15:00,12.0,0.0,0.1,2929,1026.13,,,,,1.00,,28.69,0.20,0.00
2008-10-05 16:00,11.7,0.9,1.4,2908,1025.64,,,,,1.00,,145.90,1.57,0.39
2008-10-05 17:00,11.8,1.8,2.4,2939,1024.96,,,,,1.00,,187.40,2.74,1.18
2008-10-05 18:00,12.4,2.7,3.3,2944,1024.22,,,,,1.00,,202.30,3.53,1.96
2008-10-05 19:00,12.6,1.8,2.5,2943,1023.92,,,,,1.00,,199.30,2.74,1.18
2008-10-05 20:00,13.0,2.4,3.1,2934,1023.67,,,,,1.00,,198.50,3.14,1.76
2008-10-05 21:00,13.1,4.2,4.8,2950,1023.73,,,,,1.00,,198.80,5.10,3.14
2008-10-05 22:00,12.8,3.6,4.0,2958,1024.04,,,,,1.00,,203.20,4.31,2.74
2008-10-05 23:00,12.9,3.3,4.4,2956,1023.98,,,,,1.00,,199.10,4.70,1.96
2008-10-06 00:00,13.0,3.1,3.7,2955,1024.22,,,,,1.00,,204.60,3.92,2.16
2008-10-06 01:00,12.7,3.1,3.6,2956,1024.22,,,,,1.00,,230.90,3.72,2.35
2008-10-06 02:00,12.8,3.5,4.1,2954,1024.53,,,,,1.00,,231.20,4.31,2.55
2008-10-06 03:00,12.5,2.8,3.3,2944,1024.59,,,,,1.00,,266.10,3.72,2.16
2008-10-06 04:00,11.9,1.5,1.9,2831,1024.47,,,,,1.00,,296.60,1.96,0.98
2008-10-06 05:00,11.7,3.0,3.6,2829,1024.10,,,,,1.00,,289.00,3.92,2.16
2008-10-06 06:00,11.4,4.0,5.1,2939,1024.35,,,,,1.00,,326.70,5.29,2.94
2008-10-06 07:00,12.6,6.9,8.2,2951,1023.86,,,,,1.00,,10.02,9.21,4.90
2008-10-06 08:00,12.3,7.6,9.2,2957,1023.79,,,,,1.00,,4.72,9.80,4.90
2008-10-06 09:00,12.0,6.7,7.7,2954,1024.04,,,,,1.00,,1.42,8.62,4.90
2008-10-06 10:00,10.8,6.1,7.2,2951,1024.47,,,,,1.00,,334.70,8.04,4.31
2008-10-06 11:00,,-1.4,0.2,,,,,,,,,347.97,7788.00,4.51
2008-10-06 12:00,10.4,5.1,6.0,2930,1024.96,,,,,1.00,,340.30,6.66,3.72
2008-10-06 13:00,10.5,6.5,8.0,2927,1025.21,,,,,1.00,,324.40,8.43,4.70
2008-10-06 14:00,9.8,5.5,6.9,2933,1025.02,,,,,1.00,,341.20,7.25,3.92
2008-10-06 15:00,10.7,6.2,7.6,2945,1025.21,,,,,1.00,,353.55,8.43,4.70
2008-10-06 16:00,10.8,5.6,6.6,2903,1025.15,,,,,1.00,,351.04,7.64,4.12
2008-10-06 17:00,11.0,4.9,6.1,2909,1024.66,,,,,1.00,,12.37,6.66,3.14
2008-10-06 19:00,11.4,1.3,1.9,2940,1023.61,,,,,1.00,,18.94,2.16,0.59
2008-10-06 20:00,11.8,1.2,1.6,2947,1023.73,,,,,1.00,,10.83,1.96,0.59
2008-10-06 21:00,11.8,2.2,3.7,2932,1023.98,,,,,1.00,,7.63,3.92,1.18
2008-10-06 22:00,11.8,2.3,3.1,2957,1024.47,,,,,1.00,,346.68,3.14,0.98
2008-10-06 23:00,11.6,7.3,9.2,2956,1024.59,,,,,1.00,,310.60,9.80,4.90
2008-10-07 00:00,11.0,7.7,9.4,2957,1025.09,,,,,1.00,,321.60,10.00,5.49
2008-10-07 01:00,10.7,7.7,9.5,2954,1025.46,,,,,1.00,,324.20,10.00,5.29
2008-10-07 02:00,10.4,8.0,9.9,2954,1025.70,,,,,1.00,,333.20,10.58,5.29
2008-10-07 03:00,10.1,7.5,8.9,2957,1025.89,,,,,1.00,,332.10,9.80,5.29
2008-10-07 04:00,9.7,6.1,7.2,2954,1025.83,,,,,1.00,,320.00,7.84,4.31
2008-10-07 05:00,9.0,6.4,7.7,2951,1025.46,,,,,1.00,,316.10,8.23,4.70
2008-10-07 06:00,8.7,6.9,8.0,2954,1025.52,,,,,1.00,,305.70,8.82,4.70
2008-10-07 07:00,8.2,7.6,9.1,2953,1024.90,,,,,1.00,,304.20,9.80,5.49
2008-10-07 08:00,8.2,7.7,8.7,2953,1024.90,,,,,1.00,,305.70,9.80,5.29
2008-10-07 09:00,8.0,8.1,9.4,2952,1025.02,,,,,1.00,,312.20,10.00,6.08
2008-10-07 10:00,8.2,7.7,9.5,2951,1024.96,,,,,1.00,,309.70,10.58,5.10
2008-10-07 11:00,8.1,8.0,9.1,2775,1024.96,,,,,1.00,,300.40,10.39,5.29
2008-10-07 12:00,8.6,7.9,9.4,2121,1024.90,,,,,1.00,,314.50,10.00,5.49
2008-10-07 16:00,12.0,2.4,3.0,2898,1023.55,,,,,1.00,,266.20,3.33,1.76
2008-10-07 21:00,15.4,4.1,5.3,2001,1020.72,,,,,1.00,,282.60,5.88,2.94
2008-10-07 22:00,15.3,4.7,5.3,2799,1020.41,,,,,1.00,,287.30,5.88,3.72
2008-10-07 23:00,14.6,4.1,5.4,2956,1020.66,,,,,1.00,,279.00,5.49,2.94
2008-10-08 00:00,14.1,5.3,6.5,2954,1020.59,,,,,1.00,,281.90,7.06,3.72
2008-10-08 01:00,14.0,6.5,8.0,2954,1020.53,,,,,1.00,,290.00,8.43,4.12
2008-10-08 02:00,13.6,5.6,6.7,2950,1020.47,,,,,1.00,,297.70,7.06,3.92
2008-10-08 03:00,12.8,4.3,5.1,2956,1020.23,,,,,1.00,,301.40,5.68,2.94
2008-10-08 04:00,12.6,4.6,5.6,2953,1020.53,,,,,1.00,,305.50,6.27,3.14
2008-10-08 05:00,12.2,3.8,4.7,2951,1020.53,,,,,1.00,,306.60,5.10,2.35
2008-10-08 06:00,11.9,4.2,5.0,2948,1020.41,,,,,1.00,,323.50,5.29,2.94
2008-10-08 07:00,11.5,3.3,3.9,2956,1020.04,,,,,1.00,,303.40,4.12,2.16
2008-10-08 08:00,11.1,5.4,6.4,2956,1020.23,,,,,1.00,,274.90,6.66,3.92
2008-10-08 09:00,10.7,4.5,5.1,2953,1020.04,,,,,1.00,,276.20,5.49,3.33
2008-10-08 10:00,10.5,2.4,3.1,2955,1020.35,,,,,1.00,,291.60,3.72,1.57
2008-10-08 11:00,10.8,3.7,4.6,2945,1020.41,,,,,1.00,,282.20,4.90,2.74
2008-10-08 12:00,10.9,4.2,5.5,2952,1020.84,,,,,1.00,,286.40,5.88,2.74
2008-10-08 13:00,10.9,3.3,3.8,2944,1020.96,,,,,1.00,,268.30,4.12,2.35
2008-10-08 14:00,11.4,1.9,2.6,2882,1020.72,,,,,1.00,,277.10,2.94,1.18
2008-10-08 21:00,13.8,5.1,5.8,2929,1016.54,,,,,1.00,,151.10,6.47,4.12
2008-10-08 22:00,14.4,4.3,5.0,2952,1016.42,,,,,1.00,,174.20,5.49,3.14
2008-10-08 23:00,14.3,5.1,6.0,2954,1016.48,,,,,1.00,,178.00,6.47,3.92
2008-10-09 00:00,14.2,5.9,6.9,2953,1016.23,,,,,1.00,,191.80,7.45,4.51
2008-10-09 01:00,14.0,6.9,8.6,2951,1015.93,,,,,1.00,,189.80,9.41,4.70
2008-10-09 02:00,13.8,6.1,7.4,2951,1015.50,,,,,1.00,,193.50,7.84,4.51
2008-10-09 03:00,13.9,7.7,9.1,2934,1015.25,,,,,1.00,,207.20,10.00,5.68
2008-10-09 04:00,13.9,6.8,8.0,2942,1014.70,,,,,1.00,,206.30,8.82,5.29
2008-10-09 05:00,13.9,6.8,8.0,2947,1014.02,,,,,1.00,,205.40,8.82,4.70
2008-10-09 06:00,14.0,5.9,7.0,2941,1013.47,,,,,1.00,,194.50,7.64,4.12
2008-10-09 07:00,14.0,5.0,6.0,2944,1012.86,,,,,1.00,,200.60,6.86,3.53
2008-10-09 08:00,14.1,5.3,6.2,2787,1012.24,,,,,1.00,,204.90,7.06,3.53
2008-10-09 09:00,14.1,5.3,6.1,2938,1011.38,,,,,1.00,,188.40,7.06,4.12
2008-10-09 10:00,14.4,6.1,7.1,2833,1011.02,,,,,1.00,,204.10,8.23,4.31
2008-10-09 11:00,14.3,6.1,7.2,2543,1010.71,,,,,1.00,,206.70,7.84,4.51
2008-10-09 12:00,14.3,6.0,6.8,2858,1011.02,,,,,1.00,,223.50,7.64,4.51
2008-10-09 13:00,14.6,6.0,7.6,2841,1011.14,,,,,1.00,,226.70,8.43,4.51
2008-10-09 14:00,14.8,7.2,8.5,2783,1011.08,,,,,1.00,,225.00,9.60,5.10
2008-10-09 15:00,15.0,6.0,7.0,2680,1010.96,,,,,1.00,,216.60,8.23,4.31
2008-10-09 19:00,16.6,4.8,5.7,2752,1009.73,,,,,1.00,,254.10,6.27,3.53
2008-10-09 21:00,17.4,3.9,5.0,1868,1010.10,,,,,1.00,,215.80,5.68,2.94
2008-10-09 22:00,16.3,4.6,5.0,2720,1010.71,,,,,1.00,,236.10,5.88,3.33
2008-10-09 23:00,16.0,3.5,4.2,2914,1011.45,,,,,1.00,,224.90,4.31,2.35
2008-10-10 00:00,15.7,3.2,4.0,2913,1011.94,,,,,1.00,,230.30,4.51,2.35
2008-10-10 01:00,15.9,4.4,5.0,2883,1012.18,,,,,1.00,,225.00,5.49,3.33
2008-10-10 02:00,15.6,3.9,4.4,2853,1012.67,,,,,1.00,,220.90,4.90,2.74
2008-10-10 03:00,15.0,4.2,4.9,2742,1012.98,,,,,1.00,,212.80,5.49,2.94
2008-10-10 04:00,14.8,4.0,4.5,2630,1013.35,,,,,1.00,,227.70,4.90,2.94
2008-10-10 05:00,14.7,4.2,5.1,2503,1013.59,,,,,1.00,,229.80,5.49,2.94
2008-10-10 06:00,14.4,4.9,5.6,2558,1014.08,,,,,1.00,,231.20,6.27,3.92
2008-10-10 07:00,14.1,3.9,4.2,2584,1014.76,,,,,1.00,,234.50,4.90,2.94
2008-10-10 08:00,14.8,5.0,5.6,2920,1015.25,,,,,1.00,,268.40,6.27,3.92
2008-10-10 09:00,14.4,4.9,5.8,2934,1016.05,,,,,1.00,,266.80,6.27,3.72
2008-10-10 10:00,14.4,5.9,7.2,2943,1016.79,,,,,1.00,,272.20,7.64,4.31
2008-10-10 11:00,14.3,5.1,6.3,2928,1017.58,,,,,1.00,,270.90,6.86,3.53
2008-10-10 12:00,14.0,5.0,5.9,2937,1018.44,,,,,1.00,,268.20,6.27,3.53
2008-10-10 13:00,13.8,5.0,5.8,2945,1019.18,,,,,1.00,,276.10,6.27,3.72
2008-10-10 21:00,15.3,3.0,3.6, 753,1020.53,,,,,1.00,,184.70,3.72,2.16
2008-10-10 22:00,16.2,1.9,2.2,2727,1020.90,,,,,1.00,,173.80,2.35,1.57
2008-10-10 23:00,15.8,2.3,2.7,2957,1021.82,,,,,1.00,,255.70,2.94,1.76
2008-10-11 00:00,15.4,2.2,2.4,2958,1022.32,,,,,1.00,,285.90,2.55,1.76
2008-10-11 01:00,14.9,2.1,2.4,2957,1023.06,,,,,1.00,,271.60,2.55,1.76
2008-10-11 02:00,14.6,2.3,2.6,2957,1023.98,,,,,1.00,,326.00,2.74,1.96
2008-10-11 03:00,14.0,3.1,3.6,2956,1024.29,,,,,1.00,,294.50,3.72,2.55
2008-10-11 04:00,13.9,3.3,3.8,2957,1024.66,,,,,1.00,,333.30,4.12,2.74
2008-10-11 05:00,13.8,4.6,5.4,2956,1025.33,,,,,1.00,,340.40,5.88,3.72
2008-10-11 06:00,13.3,3.0,3.6,2954,1025.95,,,,,1.00,,335.40,3.92,2.35
2008-10-11 07:00,13.5,3.8,5.1,2957,1026.13,,,,,1.00,,339.80,5.49,2.55
2008-10-11 08:00,13.0,3.3,4.2,2956,1026.44,,,,,1.00,,328.30,4.31,2.35
2008-10-11 09:00,12.4,3.3,3.9,2956,1026.75,,,,,1.00,,312.80,4.31,2.35
2008-10-11 10:00,12.2,4.2,4.8,2956,1027.24,,,,,1.00,,322.40,5.10,3.14
2008-10-11 11:00,12.1,4.4,5.2,2950,1027.92,,,,,1.00,,323.20,5.49,3.14
2008-10-11 12:00,12.2,3.4,3.9,2942,1028.97,,,,,1.00,,324.40,4.12,2.35
2008-10-11 21:00,15.3,2.4,2.7,2889,1027.86,,,,,1.00,,162.60,2.94,1.76
2008-10-11 22:00,14.4,3.2,3.8,2813,1027.98,,,,,1.00,,181.20,3.92,2.55
2008-10-11 23:00,14.2,3.2,3.6,2955,1028.23,,,,,1.00,,195.80,3.92,2.35
2008-10-12 00:00,14.4,3.0,3.5,2956,1028.60,,,,,1.00,,218.30,3.72,2.35
2008-10-12 01:00,14.4,2.4,2.7,2957,1028.84,,,,,1.00,,232.10,2.94,1.96
2008-10-12 02:00,14.0,2.3,2.6,2949,1029.34,,,,,1.00,,284.80,2.74,1.76
2008-10-12 03:00,14.8,5.9,6.8,2787,1029.83,,,,,1.00,,353.76,7.06,4.70
2008-10-12 04:00,14.6,5.9,6.9,2904,1030.26,,,,,1.00,,25.05,7.45,4.51
2008-10-12 05:00,14.2,5.7,6.5,2905,1030.45,,,,,1.00,,29.95,7.25,3.72
2008-10-12 07:00,,7384.0,716.8,,,,,,,,,6.30,716.80,7366.00
2008-10-12 08:00,12.6,3.5,4.1,2945,1031.37,,,,,1.00,,330.10,4.31,2.55
2008-10-12 09:00,12.3,3.4,4.0,2948,1031.62,,,,,1.00,,337.30,4.31,2.35
2008-10-12 10:00,12.3,3.4,4.0,2954,1031.87,,,,,1.00,,342.60,4.51,2.55
2008-10-12 11:00,12.4,4.0,4.5,2954,1032.30,,,,,1.00,,344.77,4.90,2.94
2008-10-12 12:00,12.6,3.7,4.7,2709,1032.85,,,,,1.00,,344.87,4.90,2.74
2008-10-12 14:00,13.2,2.3,2.8,2944,1033.59,,,,,1.00,,357.94,2.94,1.57
2008-10-12 18:00,13.7,1.4,1.8,2926,1031.43,,,,,1.00,,165.40,2.16,0.78
2008-10-12 21:00,14.3,2.3,2.8,2823,1030.26,,,,,1.00,,148.10,3.14,1.76
2008-10-12 22:00,14.1,3.7,4.2,2940,1030.08,,,,,1.00,,154.00,4.51,2.94
2008-10-12 23:00,14.0,4.5,5.4,2957,1030.14,,,,,1.00,,169.70,5.68,3.53
2008-10-13 00:00,14.2,4.1,5.0,2955,1029.77,,,,,1.00,,175.20,5.68,2.74
2008-10-13 01:00,14.3,5.3,6.1,2957,1029.40,,,,,1.00,,198.60,7.06,4.12
2008-10-13 02:00,14.2,4.8,5.7,2954,1028.84,,,,,1.00,,222.30,6.47,3.53
2008-10-13 03:00,14.2,3.9,4.6,2950,1028.35,,,,,1.00,,229.70,5.10,2.94
2008-10-13 04:00,14.0,3.8,4.3,2953,1027.74,,,,,1.00,,241.30,4.90,2.94
2008-10-13 05:00,13.8,3.9,4.5,2952,1027.49,,,,,1.00,,265.10,4.70,3.14
2008-10-13 06:00,13.7,3.9,4.6,2953,1027.24,,,,,1.00,,275.30,4.70,3.14
2008-10-13 07:00,13.5,5.0,5.8,2951,1026.56,,,,,1.00,,281.40,6.08,3.72
2008-10-13 08:00,13.4,3.8,4.4,2957,1026.07,,,,,1.00,,289.00,4.70,2.74
2008-10-13 09:00,13.3,2.1,2.7,2954,1025.95,,,,,1.00,,329.30,2.94,1.57
2008-10-13 10:00,13.4,2.5,2.9,2956,1025.95,,,,,1.00,,307.10,2.94,1.96
2008-10-13 11:00,13.4,2.5,3.0,2941,1025.76,,,,,1.00,,12.96,3.14,1.96
2008-10-13 12:00,13.8,4.8,5.6,2945,1026.56,,,,,1.00,,13.44,5.88,3.33
2008-10-13 13:00,14.1,3.2,3.8,1760,1025.89,,,,,1.00,,49.37,3.92,2.35
2008-10-13 14:00,14.1,4.1,4.7,2879,1026.32,,,,,1.00,,40.99,5.10,3.14
2008-10-13 15:00,13.7,4.1,4.7,2921,1026.19,,,,,1.00,,43.80,4.90,3.14
2008-10-13 16:00,13.7,4.2,5.2,2894,1026.19,,,,,1.00,,63.50,5.68,2.94
2008-10-13 17:00,13.7,4.9,5.8,2918,1026.07,,,,,1.00,,66.00,6.27,3.14
2008-10-13 19:00,13.4,3.6,4.1,2945,1025.83,,,,,1.00,,68.60,4.51,2.55
2008-10-13 21:00,12.5,3.9,4.6,2937,1025.95,,,,,1.00,,58.90,4.90,2.94
2008-10-13 22:00,12.3,3.8,4.7,2956,1026.07,,,,,1.00,,63.60,5.49,2.74
2008-10-13 23:00,12.3,4.5,5.5,2955,1026.38,,,,,1.00,,66.70,6.27,2.94
2008-10-14 00:00,12.3,4.5,5.3,2957,1026.69,,,,,1.00,,68.40,5.49,3.14
2008-10-14 01:00,12.3,5.0,5.9,2957,1026.87,,,,,1.00,,83.60,6.47,3.53
2008-10-14 02:00,12.3,5.2,6.0,2957,1026.81,,,,,1.00,,82.30,6.47,3.53
2008-10-14 03:00,12.2,3.3,4.3,2957,1026.87,,,,,1.00,,104.20,4.90,2.16
2008-10-14 04:00,12.3,2.9,3.6,2957,1026.44,,,,,1.00,,127.40,3.92,1.76
2008-10-14 05:00,12.5,2.2,3.1,2956,1026.63,,,,,1.00,,150.20,3.14,0.98
2008-10-14 06:00,12.6,3.1,3.9,2956,1026.56,,,,,1.00,,135.40,4.31,2.16
2008-10-14 07:00,12.6,3.5,4.5,2956,1026.01,,,,,1.00,,115.80,4.90,2.16
2008-10-14 08:00,12.7,2.4,3.1,2957,1025.70,,,,,1.00,,140.30,3.33,1.57
2008-10-14 09:00,12.9,3.0,3.7,2957,1025.64,,,,,1.00,,152.20,3.92,1.96
2008-10-14 10:00,12.8,2.8,3.6,2957,1025.52,,,,,1.00,,161.30,3.92,1.96
2008-10-14 11:00,12.9,2.7,3.3,2956,1025.70,,,,,1.00,,173.30,3.53,1.96
2008-10-14 12:00,12.9,3.6,4.2,2957,1025.64,,,,,1.00,,154.80,4.51,2.55
2008-10-14 13:00,13.1,4.6,5.8,2872,1025.21,,,,,1.00,,167.10,6.27,3.33
2008-10-14 14:00,13.2,4.4,5.3,2951,1024.66,,,,,1.00,,196.20,5.68,3.14
2008-10-14 18:00,13.7,7.7,8.6,2409,1020.41,,,,,1.00,,152.60,10.00,5.10
2008-10-14 20:00,14.6,6.7,8.4,1806,1019.12,,,,,1.00,,164.00,8.82,4.12
2008-10-14 21:00,14.8,9.2,11.3,1441,1016.97,,,,,1.00,,168.60,12.15,5.68
2008-10-14 22:00,14.7,7.0,8.7,2927,1017.21,,,,,1.00,,181.70,9.41,4.90
2008-10-14 23:00,14.7,8.6,9.9,2949,1017.46,,,,,1.00,,200.90,10.98,6.08
2008-10-15 01:00,14.4,8.1,9.4,2949,1017.09,,,,,1.00,,199.80,10.78,5.10
2008-10-15 02:00,14.6,8.1,9.6,2940,1016.54,,,,,1.00,,213.50,10.98,5.29
2008-10-15 03:00,14.6,7.2,8.6,2917,1016.23,,,,,1.00,,222.00,9.41,5.29
2008-10-15 04:00,,6.5,7.5,,,,,,,,,226.80,8.82,4.51
2008-10-15 05:00,14.5,5.2,6.1,2838,1016.17,,,,,1.00,,245.70,6.86,3.72
2008-10-15 06:00,14.4,3.6,4.2,2804,1016.60,,,,,1.00,,271.90,5.10,2.35
2008-10-15 07:00,14.2,3.9,4.6,2801,1016.60,,,,,1.00,,283.10,5.10,2.74
2008-10-15 08:00,14.4,3.9,4.7,2903,1016.54,,,,,1.00,,328.20,5.10,2.94
2008-10-15 09:00,13.9,6.2,7.6,2801,1017.03,,,,,1.00,,356.06,8.23,4.12
2008-10-15 10:00,13.7,5.0,5.8,2873,1017.89,,,,,1.00,,346.14,6.47,3.72
2008-10-15 11:00,13.6,6.5,7.8,2879,1018.69,,,,,1.00,,356.59,8.43,4.51
2008-10-15 12:00,13.5,7.7,9.2,2859,1019.24,,,,,1.00,,4.38,10.00,5.49
2008-10-15 13:00,13.5,6.0,7.6,2862,1020.10,,,,,1.00,,6.25,8.23,4.31
2008-10-15 14:00,13.4,6.6,8.0,2885,1020.04,,,,,1.00,,22.61,8.82,4.70
2008-10-15 18:00,13.0,2.9,3.7,2901,1018.26,,,,,1.00,,56.50,4.12,1.96
2008-10-15 21:00,12.9,3.4,4.1,2921,1017.71,,,,,1.00,,90.90,4.90,2.16
2008-10-15 22:00,13.0,4.7,5.5,2928,1017.46,,,,,1.00,,116.50,5.88,3.33
2008-10-15 23:00,13.1,4.1,4.9,2936,1017.34,,,,,1.00,,123.40,5.29,3.14
2008-10-16 00:00,13.4,3.7,4.3,2937,1017.46,,,,,1.00,,136.70,4.90,2.35
2008-10-16 01:00,13.6,3.6,4.4,2908,1017.28,,,,,1.00,,147.80,4.70,2.55
2008-10-16 02:00,13.7,3.4,4.1,2835,1017.52,,,,,1.00,,178.40,4.51,2.35
2008-10-16 03:00,13.8,3.5,4.1,2810,1016.97,,,,,1.00,,168.10,4.31,2.55
2008-10-16 04:00,13.8,3.8,4.6,2780,1016.48,,,,,1.00,,175.70,4.70,2.74
2008-10-16 05:00,13.6,4.2,4.8,2682,1016.05,,,,,1.00,,189.70,5.10,3.14
2008-10-16 06:00,13.5,4.4,5.1,2570,1015.80,,,,,1.00,,205.70,5.49,3.14
2008-10-16 07:00,13.6,3.5,4.4,2513,1015.25,,,,,1.00,,207.60,4.70,2.55
2008-10-16 08:00,13.4,3.8,4.5,2468,1014.94,,,,,1.00,,217.90,4.70,2.55
2008-10-16 09:00,13.3,5.2,5.9,2526,1014.70,,,,,1.00,,209.80,6.27,3.72
2008-10-16 10:00,12.9,6.2,7.3,2017,1014.70,,,,,1.00,,225.10,8.43,4.12
2008-10-16 11:00,13.5,3.6,4.5,2373,1014.57,,,,,1.00,,209.60,5.10,2.16
2008-10-16 12:00,13.7,4.2,4.8,2568,1014.39,,,,,1.00,,183.50,5.29,2.94
2008-10-16 13:00,13.9,5.6,6.2,2573,1013.96,,,,,1.00,,169.40,6.86,4.51
2008-10-16 14:00,14.1,5.4,6.3,2494,1013.22,,,,,1.00,,157.90,7.25,3.92
2008-10-16 15:00,14.6,6.1,7.2,2352,1012.37,,,,,1.00,,166.00,8.04,4.51
2008-10-16 16:00,14.5,6.8,8.0,2289,1011.32,,,,,1.00,,161.00,8.62,4.90
2008-10-16 17:00,14.8,6.3,7.3,2525,1010.04,,,,,1.00,,159.20,8.04,4.70
2008-10-16 18:00,15.4,7.1,8.0,2761,1008.69,,,,,1.00,,164.90,9.21,5.29
2008-10-16 19:00,15.3,5.3,6.2,2738,1008.44,,,,,1.00,,182.70,6.86,4.12
2008-10-16 20:00,15.1,3.8,4.5,2572,1008.26,,,,,1.00,,198.40,4.90,2.74
2008-10-16 21:00,15.5,4.1,4.7,2610,1008.20,,,,,1.00,,223.30,5.29,3.14
2008-10-16 22:00,15.8,5.3,6.1,2593,1008.69,,,,,1.00,,245.40,7.06,3.92
2008-10-16 23:00,16.5,5.9,7.1,2628,1009.85,,,,,1.00,,282.90,7.84,4.31
2008-10-17 00:00,15.7,10.6,13.6,2951,1011.14,,,,,1.00,,320.70,15.48,6.27
2008-10-17 01:00,14.9,9.8,11.8,2948,1012.06,,,,,1.00,,321.20,13.13,6.47
2008-10-17 02:00,14.4,9.0,10.6,2947,1012.61,,,,,1.00,,320.50,12.35,6.27
2008-10-17 03:00,13.8,6.9,8.8,2945,1012.98,,,,,1.00,,312.90,9.60,4.31
2008-10-17 04:00,13.1,6.9,8.5,2942,1013.35,,,,,1.00,,320.70,9.60,4.51
2008-10-17 05:00,12.8,6.1,7.2,2945,1013.35,,,,,1.00,,320.70,7.84,4.12
2008-10-17 06:00,12.7,6.6,7.9,2945,1013.47,,,,,1.00,,320.90,9.02,4.70
2008-10-17 07:00,,3875.0,3075.0,,,,,,,,,344.00,5663.00,61.00
2008-10-17 08:00,11.9,8.1,9.5,2949,1013.90,,,,,1.00,,332.40,10.39,5.10
2008-10-17 09:00,11.7,7.3,8.7,2941,1014.45,,,,,1.00,,323.90,9.80,4.90
2008-10-17 10:00,11.2,8.1,9.8,2944,1015.13,,,,,1.00,,323.10,10.58,5.49
2008-10-17 11:00,11.0,8.1,9.5,2942,1015.62,,,,,1.00,,327.70,10.58,5.88
2008-10-17 12:00,11.1,8.0,9.7,2922,1016.48,,,,,1.00,,336.50,10.98,5.49
2008-10-17 13:00,11.0,8.1,9.6,2904,1017.03,,,,,1.00,,343.30,10.78,5.88
2008-10-17 14:00,10.9,7.8,9.6,2500,1017.40,,,,,1.00,,351.21,11.17,4.70
2008-10-17 15:00,11.1,6.8,8.0,2781,1017.21,,,,,1.00,,0.96,9.21,4.31
2008-10-17 16:00,10.7,5.3,6.3,2919,1017.09,,,,,1.00,,359.13,8.04,3.33
2008-10-17 17:00,11.1,4.8,5.8,2862,1016.85,,,,,1.00,,6.79,6.47,2.94
2008-10-17 19:00,11.9,3.5,4.1,2880,1016.29,,,,,1.00,,40.48,4.90,2.16
2008-10-17 20:00,12.0,2.4,3.1,2948,1016.60,,,,,1.00,,76.30,3.53,1.37
2008-10-17 21:00,12.1,0.9,1.4,2107,1016.91,,,,,1.00,,97.70,1.76,0.39
2008-10-17 22:00,11.8,1.2,2.2,2956,1017.34,,,,,1.00,,129.50,2.35,0.59
2008-10-17 23:00,11.6,0.3,0.7,2956,1018.08,,,,,1.00,,251.70,0.98,0.00
2008-10-18 00:00,11.8,0.4,0.8,2923,1018.75,,,,,1.00,,343.10,0.98,0.00
2008-10-18 01:00,11.5,5.7,6.8,2956,1019.06,,,,,1.00,,327.50,7.06,3.33